Location: Trebic
(49.2170°N, 15.8830°E)
Time: 03:16:21
(UTC+02:00)

Transit 2A Rocket - Pass Details

Date: 23 July 2019
Orbit: 590 x 913 km, 66.7° (Epoch: 24 August)

Event Time Altitude Azimuth Distance (km) Brightness Sun altitude
Rises 09:27:47 0° 322° (NW) 3,300 7.9 38.5°
Reaches altitude 10° 09:31:21 10° 344° (NNW) 2,294 7.3 39.1°
Maximum altitude 09:34:23 15° 20° (NNE) 1,888 7.2 39.5°
Drops below altitude 10° 09:37:16 10° 56° (NE) 2,165 7.9 40.0°
Sets 09:40:28 0° 80° (E) 3,011 8.8 40.5°
